Location: La Trinit�
(48.3713°N, 4.5888°W)
Time: 04:19:31
(UTC+00:00)

Daily predictions for brighter satellites

Satellite Brightness Start Highest point End
(mag) Time Altitude Azimuth Time Altitude Azimuth Time Altitude Azimuth
USA 234 4.4 02:37:32 10° NE 02:41:14 37° NE 02:41:14 37° NE
Cosmos 2344 4.3 02:56:53 43° ESE 02:56:53 43° ESE 03:03:58 10° NE
ADEOS II 4.4 03:28:34 10° N 03:29:26 15° N 03:29:26 15° N
CENTAUR R/B 3.3 03:35:38 42° SE 03:36:18 43° ESE 03:42:46 10° NE
ARIANE 5 R/B 4.4 03:34:28 10° NNE 03:36:09 22° N 03:36:09 22° N
CZ-2C R/B 3.1 04:00:51 10° NNE 04:05:45 51° E 04:07:18 37° SSE
ISS -0.7 04:07:09 12° ESE 04:07:09 12° ESE 04:08:04 10° ESE
Lacrosse 4 Rocket 2.8 04:08:01 35° ESE 04:08:01 35° ESE 04:11:25 10° NE
USA 238 DEB 3.5 04:07:03 70° SW 04:07:56 90° ESE 04:14:55 10° NE
USA 238 3.5 04:07:08 70° SW 04:08:02 89° SE 04:15:00 10° NE
GP-B 4.4 04:10:49 32° NNE 04:10:49 32° NNE 04:13:16 10° N
Cosmos 2142 Rocket 4.3 04:02:52 10° N 04:09:07 85° W 04:15:26 10° S
Cosmos 1833 Rocket 4.3 04:04:20 10° SSE 04:09:13 31° ESE 04:14:07 10° NE
In-Cosmos 22 4.3 04:09:21 49° SSE 04:10:43 68° E 04:16:08 10° NNE
PAYLOAD A 4.3 04:05:46 10° NNE 04:10:49 65° ESE 04:12:20 44° SSE
NOSS 3-2 (A) 3.2 04:11:54 78° W 04:12:10 80° NW 04:18:50 10° NE
Cosmos 1025 Rocket 4.0 04:14:23 41° NNE 04:14:23 41° NNE 04:17:20 10° NNE
Cosmos 1302 Rocket 4.2 04:12:05 35° N 04:14:19 70° ENE 04:19:35 10° SSE
Cosmos 1674 3.9 04:16:31 40° ENE 04:16:31 40° ENE 04:19:30 10° NNE
Cosmos 1269 Rocket 4.4 04:15:37 38° S 04:17:28 61° ESE 04:22:43 10° NNE
IDEFIX/ARIANE 42P 3.8 04:13:48 10° N 04:16:34 29° NNW 04:16:34 29° NNW
Cosmos 494 Rocket 4.0 04:22:50 67° NNW 04:22:50 67° NNW 04:27:43 10° NNE
ATLAS 3B R/B 4.3 04:17:04 10° S 04:22:37 30° ESE 04:28:13 10° NE
Geosat 4.1 04:18:37 10° SE 04:23:37 75° ENE 04:25:54 33° NNW
Meteor 1-16 Rocket 3.9 04:19:38 10° NNW 04:24:59 87° W 04:30:19 10° S
Cosmos 1626 4.4 04:22:05 10° SE 04:25:08 25° E 04:28:12 10° NE
USA 234 3.8 04:20:36 10° ENE 04:26:47 47° NNW 04:28:35 38° NW
Cosmos 2082 Rocket 4.3 04:23:23 10° SSE 04:27:52 25° ESE 04:32:22 10° NE
Cosmos 1656 3.5 04:31:28 42° NW 04:33:26 74° WSW 04:39:06 10° SSE
Cosmos 2279 Rocket 3.9 04:28:29 10° NNW 04:34:38 65° W 04:40:44 10° S
Lacrosse 5 rocket 2.7 04:35:54 25° SSE 04:36:44 28° SE 04:39:58 10° ENE
ADEOS Rocket 2.6 04:35:28 10° S 04:40:53 62° WSW 04:46:27 10° NNW
CREW DRAGON DEMO-1 DEB 4.4 04:42:58 32° NE 04:42:58 32° NE 04:44:59 10° ENE
COSMOS 2406 3.3 04:41:41 17° SSW 04:46:03 74° ESE 04:51:44 10° NNE
Cosmos 1536 Rocket 3.5 04:49:09 60° WSW 04:49:34 63° WNW 04:54:03 10° N
Cosmos 1697 Rocket 2.6 04:45:44 11° NNW 04:51:12 88° ENE 04:56:52 10° SSE
deb Chang Zheng 4 4.4 04:47:47 10° NNE 04:51:57 49° E 04:56:04 10° S
Cosmos 1992 Rocket 4.4 04:50:03 10° NNW 04:55:15 65° ENE 05:00:25 10° SSE
CZ-4B R/B 1.3 04:57:48 10° SSE 05:01:17 82° WSW 05:03:23 22° NNW
FENGYUN 3A 3.8 05:00:10 10° NNE 05:05:39 79° ESE 05:11:05 10° S
Cosmos 1400 Rocket 3.7 05:03:37 10° N 05:07:30 50° ENE 05:11:18 10° SSE
CBERS 1 LM4 rocket 4.3 05:03:18 10° N 05:08:14 64° WNW 05:12:58 10° SSW
Cosmos 44 Rocket 3.8 05:08:01 35° W 05:09:13 40° WSW 05:14:02 10° S
Cosmos 2344 3.8 05:06:55 27° W 05:10:55 52° NW 05:19:11 10° NE
NOSS 3-2 (C) 3.6 05:09:14 29° WSW 05:12:14 57° NW 05:18:53 10° NE
PSLV R/B 4.0 05:08:40 10° N 05:12:38 37° WNW 05:13:12 36° W
Cosmos 1980 Rocket 2.4 05:07:25 10° NNW 05:13:02 73° ENE 05:18:37 10° SE
ARIANE 5 R/B 4.4 05:15:22 10° NNW 05:16:29 13° NW 05:16:29 13° NW
Cosmos 2251 Rocket 4.2 05:12:37 10° S 05:17:51 58° ESE 05:23:07 10° NNE
SL-19 R/B 4.0 05:15:17 10° NNE 05:18:06 59° ESE 05:20:54 10° S
SKYMED 2 3.8 05:14:13 10° SSE 05:18:33 73° ENE 05:22:54 10° N
ERS-2 2.7 05:18:52 10° SSW 05:22:05 33° WSW 05:22:05 33° WSW
Cosmos 2360 4.1 05:18:12 10° NNW 05:23:52 68° WSW 05:29:29 10° SSE
Cosmos 1461 3.4 05:21:41 10° SSW 05:26:12 69° SE 05:30:54 10° NE
CENTAUR R/B 2.9 05:22:52 22° WSW 05:26:52 52° NW 05:34:03 10° NE
SAR-Lupe-4 3.6 05:24:43 10° S 05:28:14 56° W 05:31:47 10° NNW
SL-14 R/B 3.2 05:29:10 10° SSW 05:33:07 65° WNW 05:37:09 10° N
ALOS 2.3 05:31:10 10° N 05:35:44 55° WNW 05:40:18 10° SSW
Intercosmos 24 4.1 05:32:37 10° NNW 05:36:27 41° W 05:39:47 10° SSW
Cosmos 1315 Rocket 4.4 05:32:44 10° N 05:36:36 38° ENE 05:40:28 10° SE
Abrixas rocket 2.0 05:38:01 30° W 05:39:09 57° SSW 05:41:57 10° ESE
Cosmos 2278 3.6 05:33:47 10° NNW 05:39:26 72° WSW 05:45:03 10° SSE
Cosmos 1300 2.8 05:37:24 10° NNW 05:41:08 51° W 05:44:50 10° S
Elektron 1 4.1 05:38:36 10° SW 05:41:45 62° SE 05:44:39 10° NE
Cosmos 1092 Rocket 3.9 05:35:43 10° SSW 05:41:53 75° W 05:48:08 10° N
Aureole 3 3.5 05:38:21 10° N 05:42:16 84° W 05:47:16 10° S
ISS -3.5 05:40:08 16° SW 05:42:40 65° SSE 05:46:01 10° ENE
Cosmos 1689 Rocket 2.1 05:40:25 10° S 05:43:18 54° W 05:46:11 10° NNW
Cosmos 2322 Rocket 3.7 05:38:13 10° NNW 05:43:28 36° NE 05:48:40 10° ESE
CZ-2C R/B 3.5 05:39:38 10° N 05:43:39 25° WNW 05:46:40 14° WSW
Cosmos 1726 Rocket 3.6 05:39:29 10° NNW 05:43:52 55° W 05:48:12 10° S
PSLV R/B 3.9 05:40:35 10° S 05:44:45 69° WSW 05:48:59 10° NNW
USA 290 2.1 05:43:08 10° SSW 05:46:22 85° WNW 05:49:38 10° NNE
Lacrosse 4 Rocket 2.3 05:44:23 19° W 05:46:25 29° NW 05:50:01 10° NNE
ADEOS 3.8 05:42:52 10° N 05:47:52 46° WNW 05:52:50 10° SW
Nadezhda 4 Rocket 4.3 05:42:37 10° SW 05:48:24 43° WNW 05:54:15 10° N
Cosmos 1484 Rocket 3.5 05:47:45 10° N 05:51:15 32° WNW 05:54:39 10° SW
Cosmos 1674 4.2 05:51:24 16° WNW 05:51:36 16° WNW 05:54:04 10° NNW
Cosmos 1833 Rocket 2.9 05:47:28 10° SW 05:52:56 49° NW 05:58:26 10° NNE
Cosmos 2228 3.8 05:52:42 10° NNW 05:56:33 31° W 06:00:23 10° SSW
Meteor 1-24 Rocket 3.8 05:52:40 10° SSW 05:58:11 58° WNW 06:03:58 10° N
Cosmos 1606 Rocket 4.3 05:54:49 10° NNW 05:58:47 32° W 06:02:45 10° SSW
CZ-4B R/B 2.9 05:55:05 10° N 05:59:01 64° WNW 06:03:08 10° SSW
Cosmos 1626 3.1 05:57:11 10° SW 06:00:18 25° WNW 06:03:27 10° NNW
H-2A R/B 3.3 05:57:21 10° NNE 06:01:08 64° E 06:04:56 10° S
Cosmos 2369 4.4 05:57:16 10° NW 06:02:16 33° WSW 06:07:14 10° SSW
Meteor 2-10 Rocket 3.5 05:57:23 10° N 06:02:26 86° ENE 06:07:30 10° SSE
Envisat 4.3 05:57:35 10° NNE 06:02:30 47° E 06:07:22 10° S
COSMO-SKYMED 1 3.1 06:02:40 10° SSW 06:06:42 37° W 06:10:46 10° NNW
Cosmos 407 Rocket 4.4 06:02:59 10° S 06:07:56 52° ESE 06:12:58 10° NNE
USA 234 4.0 06:02:59 10° ENE 06:09:05 44° N 06:15:12 10° WNW
Cosmos 2082 Rocket 2.3 06:06:01 10° SW 06:11:32 59° WNW 06:17:07 10° NNE
ATLAS 3B R/B 2.6 06:06:17 10° SW 06:12:49 68° NW 06:19:31 10° NE
Meteor 2-1 Rocket 4.3 06:09:18 10° NNW 06:14:59 88° WSW 06:20:44 10° S
Meteor 1-31 Rocket 3.8 06:11:56 10° N 06:15:12 25° WNW 06:18:28 10° WSW
Lacrosse 5 rocket 1.4 06:12:04 10° WSW 06:15:39 51° NNW 06:19:26 10° NE
CREW DRAGON DEMO-1 DEB 2.8 06:14:49 10° WNW 06:17:51 86° NNE 06:20:52 10° ESE
ATLAS CENTAUR R/B 4.0 06:14:55 10° S 06:18:03 23° ESE 06:21:04 10° ENE
SL-16 R/B 2.5 06:12:43 10° NNW 06:18:25 72° ENE 06:24:05 10° SE
Meteor PRIRODA 4.1 06:16:39 10° N 06:20:05 39° WNW 06:23:30 10° SW
Meteor 2-5 Rocket 4.5 06:17:05 10° SW 06:22:08 32° WNW 06:27:19 10° N
Cosmos 2333 Rocket 4.3 06:19:47 10° N 06:24:12 22° NE 06:28:34 10° E
Okean 1-7 Rocket 3.9 06:21:16 10° SSW 06:25:38 45° WNW 06:30:00 10° N
NOAA 6 4.3 06:21:08 10° NNE 06:26:21 79° ESE 06:31:29 10° SSW
